owner,sensor,date,latitude,longitude,vertical_datum,sea_water_practical_salinity,qcFlag 
NERRS,ioos:station:NOAA.NERRS:marscwq:1,2017-04-01T00:00:00Z,27.8383,-97.0503,6.18,32.6,1111122 
NERRS,ioos:station:NOAA.NERRS:marscwq:1,2017-04-01T01:00:00Z,27.8383,-97.0503,6.19,32.6,1111122 
NERRS,ioos:station:NOAA.NERRS:marscwq:1,2017-04-01T02:00:00Z,27.8383,-97.0503,6.05,32.6,1111122 
NERRS,ioos:station:NOAA.NERRS:marscwq:1,2017-04-01T03:00:00Z,27.8383,-97.0503,6.0,32.6,1111122 
NERRS,ioos:station:NOAA.NERRS:marscwq:1,2017-04-01T04:00:00Z,27.8383,-97.0503,5.95,32.6,1111122 
NERRS,ioos:station:NOAA.NERRS:marscwq:1,2017-04-01T05:00:00Z,27.8383,-97.0503,5.89,32.6,1111122 
NERRS,ioos:station:NOAA.NERRS:marscwq:1,2017-04-01T06:00:00Z,27.8383,-97.0503,5.89,32.6,1111122 
NERRS,ioos:station:NOAA.NERRS:marscwq:1,2017-04-01T07:00:00Z,27.8383,-97.0503,5.94,32.5,1111122 
NERRS,ioos:station:NOAA.NERRS:marscwq:1,2017-04-01T09:00:00Z,27.8383,-97.0503,6.13,32.4,1111122 
NERRS,ioos:station:NOAA.NERRS:marscwq:1,2017-04-01T10:00:00Z,27.8383,-97.0503,6.19,32.4,1111122 
NERRS,ioos:station:NOAA.NERRS:marscwq:1,2017-04-01T11:00:00Z,27.8383,-97.0503,6.24,32.4,1111122 
NERRS,ioos:station:NOAA.NERRS:marscwq:1,2017-04-01T12:00:00Z,27.8383,-97.0503,6.27,32.5,1111122 
NERRS,ioos:station:NOAA.NERRS:marscwq:1,2017-04-01T13:00:00Z,27.8383,-97.0503,6.35,32.5,1111122 
NERRS,ioos:station:NOAA.NERRS:marscwq:1,2017-04-01T14:00:00Z,27.8383,-97.0503,6.35,32.3,1111122 
NERRS,ioos:station:NOAA.NERRS:marscwq:1,2017-04-01T15:00:00Z,27.8383,-97.0503,6.34,32.2,1111122 
NERRS,ioos:station:NOAA.NERRS:marscwq:1,2017-04-01T16:00:00Z,27.8383,-97.0503,6.34,32.1,1111122 
NERRS,ioos:station:NOAA.NERRS:marscwq:1,2017-04-01T17:00:00Z,27.8383,-97.0503,6.34,32.0,1111122 
NERRS,ioos:station:NOAA.NERRS:marscwq:1,2017-04-01T18:00:00Z,27.8383,-97.0503,6.3,32.0,1111122 
NERRS,ioos:station:NOAA.NERRS:marscwq:1,2017-04-01T19:00:00Z,27.8383,-97.0503,6.33,32.0,1111122 
NERRS,ioos:station:NOAA.NERRS:marscwq:1,2017-04-01T20:00:00Z,27.8383,-97.0503,6.28,32.0,1111122 
NERRS,ioos:station:NOAA.NERRS:marscwq:1,2017-04-01T21:00:00Z,27.8383,-97.0503,6.27,31.9,1111122 
NERRS,ioos:station:NOAA.NERRS:marscwq:1,2017-04-01T22:00:00Z,27.8383,-97.0503,6.28,31.9,1111122 
NERRS,ioos:station:NOAA.NERRS:marscwq:1,2017-04-01T23:00:00Z,27.8383,-97.0503,6.27,31.8,1111122 
NERRS,ioos:station:NOAA.NERRS:marscwq:1,2017-04-02T00:00:00Z,27.8383,-97.0503,6.27,31.8,1111122 
NERRS,ioos:station:NOAA.NERRS:marscwq:1,2017-04-02T01:00:00Z,27.8383,-97.0503,6.25,31.8,1111122 
NERRS,ioos:station:NOAA.NERRS:marscwq:1,2017-04-02T02:00:00Z,27.8383,-97.0503,6.19,31.8,1111122 
NERRS,ioos:station:NOAA.NERRS:marscwq:1,2017-04-02T03:00:00Z,27.8383,-97.0503,6.17,31.9,1111122 
NERRS,ioos:station:NOAA.NERRS:marscwq:1,2017-04-02T04:00:00Z,27.8383,-97.0503,6.06,31.9,1111122 
NERRS,ioos:station:NOAA.NERRS:marscwq:1,2017-04-02T05:00:00Z,27.8383,-97.0503,6.05,31.9,1111122 
NERRS,ioos:station:NOAA.NERRS:marscwq:1,2017-04-02T06:00:00Z,27.8383,-97.0503,6.0,32.0,1111122 
NERRS,ioos:station:NOAA.NERRS:marscwq:1,2017-04-02T07:00:00Z,27.8383,-97.0503,5.96,32.0,1111122 
NERRS,ioos:station:NOAA.NERRS:marscwq:1,2017-04-02T08:00:00Z,27.8383,-97.0503,5.98,32.0,1111122 
NERRS,ioos:station:NOAA.NERRS:marscwq:1,2017-04-02T09:00:00Z,27.8383,-97.0503,6.08,32.1,1111122 
NERRS,ioos:station:NOAA.NERRS:marscwq:1,2017-04-02T10:00:00Z,27.8383,-97.0503,6.12,32.1,1111122 
NERRS,ioos:station:NOAA.NERRS:marscwq:1,2017-04-02T11:00:00Z,27.8383,-97.0503,6.21,31.8,1111122 
NERRS,ioos:station:NOAA.NERRS:marscwq:1,2017-04-02T12:00:00Z,27.8383,-97.0503,6.31,31.9,1111122 
NERRS,ioos:station:NOAA.NERRS:marscwq:1,2017-04-02T13:00:00Z,27.8383,-97.0503,6.35,31.9,1111122 
NERRS,ioos:station:NOAA.NERRS:marscwq:1,2017-04-02T14:00:00Z,27.8383,-97.0503,6.37,31.7,1111122 
NERRS,ioos:station:NOAA.NERRS:marscwq:1,2017-04-02T15:00:00Z,27.8383,-97.0503,6.38,31.6,1111122 
NERRS,ioos:station:NOAA.NERRS:marscwq:1,2017-04-02T16:00:00Z,27.8383,-97.0503,6.34,31.6,1111122 
NERRS,ioos:station:NOAA.NERRS:marscwq:1,2017-04-02T17:00:00Z,27.8383,-97.0503,6.39,31.5,1111122 
NERRS,ioos:station:NOAA.NERRS:marscwq:1,2017-04-02T18:00:00Z,27.8383,-97.0503,6.39,31.5,1111122 
NERRS,ioos:station:NOAA.NERRS:marscwq:1,2017-04-02T19:00:00Z,27.8383,-97.0503,6.38,31.5,1111122 
NERRS,ioos:station:NOAA.NERRS:marscwq:1,2017-04-02T20:00:00Z,27.8383,-97.0503,6.38,31.5,1111122 
NERRS,ioos:station:NOAA.NERRS:marscwq:1,2017-04-02T21:00:00Z,27.8383,-97.0503,6.36,31.6,1111122 
NERRS,ioos:station:NOAA.NERRS:marscwq:1,2017-04-02T22:00:00Z,27.8383,-97.0503,6.36,31.6,1111122 
NERRS,ioos:station:NOAA.NERRS:marscwq:1,2017-04-02T23:00:00Z,27.8383,-97.0503,6.33,31.6,1111122 
NERRS,ioos:station:NOAA.NERRS:marscwq:1,2017-04-03T00:00:00Z,27.8383,-97.0503,6.33,31.6,1111122 
NERRS,ioos:station:NOAA.NERRS:marscwq:1,2017-04-03T01:00:00Z,27.8383,-97.0503,6.32,31.6,1111122 
NERRS,ioos:station:NOAA.NERRS:marscwq:1,2017-04-03T02:00:00Z,27.8383,-97.0503,6.31,31.6,1111122 
NERRS,ioos:station:NOAA.NERRS:marscwq:1,2017-04-03T03:00:00Z,27.8383,-97.0503,6.21,31.6,1111122 
NERRS,ioos:station:NOAA.NERRS:marscwq:1,2017-04-03T04:00:00Z,27.8383,-97.0503,6.13,31.6,1111122 
NERRS,ioos:station:NOAA.NERRS:marscwq:1,2017-04-03T06:00:00Z,27.8383,-97.0503,6.02,31.7,1111122 
NERRS,ioos:station:NOAA.NERRS:marscwq:1,2017-04-03T07:00:00Z,27.8383,-97.0503,5.98,31.8,1111122 
NERRS,ioos:station:NOAA.NERRS:marscwq:1,2017-04-03T08:00:00Z,27.8383,-97.0503,5.96,31.9,1111122 
NERRS,ioos:station:NOAA.NERRS:marscwq:1,2017-04-03T09:00:00Z,27.8383,-97.0503,5.95,31.9,1111122 
NERRS,ioos:station:NOAA.NERRS:marscwq:1,2017-04-03T10:00:00Z,27.8383,-97.0503,5.98,32.0,1111122 
NERRS,ioos:station:NOAA.NERRS:marscwq:1,2017-04-03T11:00:00Z,27.8383,-97.0503,6.01,32.0,1111122 
NERRS,ioos:station:NOAA.NERRS:marscwq:1,2017-04-03T13:00:00Z,27.8383,-97.0503,6.26,31.4,1111122 
NERRS,ioos:station:NOAA.NERRS:marscwq:1,2017-04-03T14:00:00Z,27.8383,-97.0503,6.34,31.6,1111122 
NERRS,ioos:station:NOAA.NERRS:marscwq:1,2017-04-03T15:00:00Z,27.8383,-97.0503,6.34,31.8,1111122 
NERRS,ioos:station:NOAA.NERRS:marscwq:1,2017-04-03T16:00:00Z,27.8383,-97.0503,6.33,31.6,1111122 
NERRS,ioos:station:NOAA.NERRS:marscwq:1,2017-04-03T17:00:00Z,27.8383,-97.0503,6.38,31.6,1111122 
NERRS,ioos:station:NOAA.NERRS:marscwq:1,2017-04-03T18:00:00Z,27.8383,-97.0503,6.37,31.6,1111122 
NERRS,ioos:station:NOAA.NERRS:marscwq:1,2017-04-03T19:00:00Z,27.8383,-97.0503,6.3,31.6,1111122 
NERRS,ioos:station:NOAA.NERRS:marscwq:1,2017-04-03T20:00:00Z,27.8383,-97.0503,6.28,31.6,1111122 
NERRS,ioos:station:NOAA.NERRS:marscwq:1,2017-04-03T21:00:00Z,27.8383,-97.0503,6.24,31.6,1111122 
NERRS,ioos:station:NOAA.NERRS:marscwq:1,2017-04-03T22:00:00Z,27.8383,-97.0503,6.17,31.6,1111122 
NERRS,ioos:station:NOAA.NERRS:marscwq:1,2017-04-04T00:00:00Z,27.8383,-97.0503,6.12,31.6,1111122 
NERRS,ioos:station:NOAA.NERRS:marscwq:1,2017-04-04T00:45:00Z,27.8383,-97.0503,6.14,31.6,1111122 
NERRS,ioos:station:NOAA.NERRS:marscwq:1,2017-04-04T02:00:00Z,27.8383,-97.0503,6.16,31.6,1111122 
NERRS,ioos:station:NOAA.NERRS:marscwq:1,2017-04-04T03:00:00Z,27.8383,-97.0503,6.1,31.6,1111122 
NERRS,ioos:station:NOAA.NERRS:marscwq:1,2017-04-04T04:45:00Z,27.8383,-97.0503,5.98,31.7,1111122 
NERRS,ioos:station:NOAA.NERRS:marscwq:1,2017-04-04T08:00:00Z,27.8383,-97.0503,5.77,32.0,1111122 
NERRS,ioos:station:NOAA.NERRS:marscwq:1,2017-04-04T11:00:00Z,27.8383,-97.0503,5.8,31.6,1111122 
NERRS,ioos:station:NOAA.NERRS:marscwq:1,2017-04-04T12:00:00Z,27.8383,-97.0503,5.89,30.9,1111122 
NERRS,ioos:station:NOAA.NERRS:marscwq:1,2017-04-04T13:00:00Z,27.8383,-97.0503,5.99,30.9,1111122 
NERRS,ioos:station:NOAA.NERRS:marscwq:1,2017-04-04T14:00:00Z,27.8383,-97.0503,6.08,31.7,1111122 
NERRS,ioos:station:NOAA.NERRS:marscwq:1,2017-04-04T15:00:00Z,27.8383,-97.0503,6.14,31.2,1111122 
NERRS,ioos:station:NOAA.NERRS:marscwq:1,2017-04-04T16:00:00Z,27.8383,-97.0503,6.19,31.1,1111122 
NERRS,ioos:station:NOAA.NERRS:marscwq:1,2017-04-04T17:00:00Z,27.8383,-97.0503,6.19,31.7,1111122 
NERRS,ioos:station:NOAA.NERRS:marscwq:1,2017-04-04T18:00:00Z,27.8383,-97.0503,6.18,31.7,1111122 
NERRS,ioos:station:NOAA.NERRS:marscwq:1,2017-04-04T19:00:00Z,27.8383,-97.0503,6.18,31.7,1111122 
NERRS,ioos:station:NOAA.NERRS:marscwq:1,2017-04-04T21:00:00Z,27.8383,-97.0503,6.13,31.7,1111122 
NERRS,ioos:station:NOAA.NERRS:marscwq:1,2017-04-04T22:00:00Z,27.8383,-97.0503,6.13,31.7,1111122 
NERRS,ioos:station:NOAA.NERRS:marscwq:1,2017-04-06T14:00:00Z,27.8383,-97.0503,5.92,28.8,1111122 
NERRS,ioos:station:NOAA.NERRS:marscwq:1,2017-04-06T15:00:00Z,27.8383,-97.0503,6.02,29.6,1111122 
NERRS,ioos:station:NOAA.NERRS:marscwq:1,2017-04-06T16:00:00Z,27.8383,-97.0503,6.04,29.2,1111122 
NERRS,ioos:station:NOAA.NERRS:marscwq:1,2017-04-06T17:00:00Z,27.8383,-97.0503,6.1,28.8,1111122 
NERRS,ioos:station:NOAA.NERRS:marscwq:1,2017-04-06T18:00:00Z,27.8383,-97.0503,6.15,28.8,1111122 
NERRS,ioos:station:NOAA.NERRS:marscwq:1,2017-04-06T19:00:00Z,27.8383,-97.0503,6.12,29.8,1111122 
NERRS,ioos:station:NOAA.NERRS:marscwq:1,2017-04-06T20:00:00Z,27.8383,-97.0503,6.12,29.9,1111122 
NERRS,ioos:station:NOAA.NERRS:marscwq:1,2017-04-06T21:00:00Z,27.8383,-97.0503,6.07,30.3,1111122 
NERRS,ioos:station:NOAA.NERRS:marscwq:1,2017-04-06T22:00:00Z,27.8383,-97.0503,6.05,30.3,1111122 
NERRS,ioos:station:NOAA.NERRS:marscwq:1,2017-04-06T23:00:00Z,27.8383,-97.0503,6.04,30.2,1111122 
NERRS,ioos:station:NOAA.NERRS:marscwq:1,2017-04-07T00:00:00Z,27.8383,-97.0503,6.05,30.1,1111122 
NERRS,ioos:station:NOAA.NERRS:marscwq:1,2017-04-07T01:00:00Z,27.8383,-97.0503,6.0,30.1,1111122 
NERRS,ioos:station:NOAA.NERRS:marscwq:1,2017-04-07T02:00:00Z,27.8383,-97.0503,6.06,30.1,1111122 
NERRS,ioos:station:NOAA.NERRS:marscwq:1,2017-04-07T03:00:00Z,27.8383,-97.0503,6.08,30.3,1111122 
NERRS,ioos:station:NOAA.NERRS:marscwq:1,2017-04-07T04:00:00Z,27.8383,-97.0503,6.08,30.3,1111122 
NERRS,ioos:station:NOAA.NERRS:marscwq:1,2017-04-07T05:00:00Z,27.8383,-97.0503,6.12,30.2,1111122 
NERRS,ioos:station:NOAA.NERRS:marscwq:1,2017-04-07T06:00:00Z,27.8383,-97.0503,6.12,30.2,1111122 
NERRS,ioos:station:NOAA.NERRS:marscwq:1,2017-04-07T07:00:00Z,27.8383,-97.0503,6.09,30.2,1111122 
NERRS,ioos:station:NOAA.NERRS:marscwq:1,2017-04-07T08:00:00Z,27.8383,-97.0503,6.02,30.2,1111122 
NERRS,ioos:station:NOAA.NERRS:marscwq:1,2017-04-07T09:00:00Z,27.8383,-97.0503,5.97,30.2,1111122 
NERRS,ioos:station:NOAA.NERRS:marscwq:1,2017-04-07T10:00:00Z,27.8383,-97.0503,5.91,30.1,1111122 
NERRS,ioos:station:NOAA.NERRS:marscwq:1,2017-04-07T11:00:00Z,27.8383,-97.0503,5.89,30.1,1111122 
NERRS,ioos:station:NOAA.NERRS:marscwq:1,2017-04-07T12:00:00Z,27.8383,-97.0503,5.91,30.1,1111122 
NERRS,ioos:station:NOAA.NERRS:marscwq:1,2017-04-07T13:00:00Z,27.8383,-97.0503,5.9,30.2,1111122 
NERRS,ioos:station:NOAA.NERRS:marscwq:1,2017-04-07T14:00:00Z,27.8383,-97.0503,5.95,29.9,1111122 
NERRS,ioos:station:NOAA.NERRS:marscwq:1,2017-04-07T15:00:00Z,27.8383,-97.0503,5.99,29.8,1111122 
NERRS,ioos:station:NOAA.NERRS:marscwq:1,2017-04-07T16:00:00Z,27.8383,-97.0503,6.02,30.0,1111122 
NERRS,ioos:station:NOAA.NERRS:marscwq:1,2017-04-07T17:00:00Z,27.8383,-97.0503,6.08,29.2,1111122 
NERRS,ioos:station:NOAA.NERRS:marscwq:1,2017-04-07T18:00:00Z,27.8383,-97.0503,6.12,29.8,1111122 
NERRS,ioos:station:NOAA.NERRS:marscwq:1,2017-04-07T19:00:00Z,27.8383,-97.0503,6.12,30.4,1111122 
NERRS,ioos:station:NOAA.NERRS:marscwq:1,2017-04-07T20:00:00Z,27.8383,-97.0503,6.11,30.7,1111122 
NERRS,ioos:station:NOAA.NERRS:marscwq:1,2017-04-07T21:00:00Z,27.8383,-97.0503,6.1,30.7,1111122 
NERRS,ioos:station:NOAA.NERRS:marscwq:1,2017-04-07T22:00:00Z,27.8383,-97.0503,6.06,30.7,1111122 
NERRS,ioos:station:NOAA.NERRS:marscwq:1,2017-04-07T23:00:00Z,27.8383,-97.0503,6.03,30.8,1111122 
NERRS,ioos:station:NOAA.NERRS:marscwq:1,2017-04-08T00:00:00Z,27.8383,-97.0503,5.96,30.8,1111122 
NERRS,ioos:station:NOAA.NERRS:marscwq:1,2017-04-08T01:00:00Z,27.8383,-97.0503,6.01,30.7,1111122 
NERRS,ioos:station:NOAA.NERRS:marscwq:1,2017-04-08T02:00:00Z,27.8383,-97.0503,6.02,30.7,1111122 
NERRS,ioos:station:NOAA.NERRS:marscwq:1,2017-04-08T03:00:00Z,27.8383,-97.0503,6.01,30.7,1111122 
NERRS,ioos:station:NOAA.NERRS:marscwq:1,2017-04-08T04:00:00Z,27.8383,-97.0503,6.06,30.7,1111122 
NERRS,ioos:station:NOAA.NERRS:marscwq:1,2017-04-08T05:00:00Z,27.8383,-97.0503,6.09,30.7,1111122 
NERRS,ioos:station:NOAA.NERRS:marscwq:1,2017-04-08T06:00:00Z,27.8383,-97.0503,6.12,30.7,1111122 
NERRS,ioos:station:NOAA.NERRS:marscwq:1,2017-04-08T07:00:00Z,27.8383,-97.0503,6.11,30.7,1111122 
NERRS,ioos:station:NOAA.NERRS:marscwq:1,2017-04-08T08:00:00Z,27.8383,-97.0503,6.07,31.0,1111122 
NERRS,ioos:station:NOAA.NERRS:marscwq:1,2017-04-08T09:00:00Z,27.8383,-97.0503,6.04,31.0,1111122 
NERRS,ioos:station:NOAA.NERRS:marscwq:1,2017-04-08T10:00:00Z,27.8383,-97.0503,5.96,31.1,1111122 
NERRS,ioos:station:NOAA.NERRS:marscwq:1,2017-04-08T11:00:00Z,27.8383,-97.0503,5.96,31.0,1111122 
NERRS,ioos:station:NOAA.NERRS:marscwq:1,2017-04-08T12:00:00Z,27.8383,-97.0503,5.93,31.0,1111122 
NERRS,ioos:station:NOAA.NERRS:marscwq:1,2017-04-08T13:00:00Z,27.8383,-97.0503,5.94,30.9,1111122 
NERRS,ioos:station:NOAA.NERRS:marscwq:1,2017-04-08T14:00:00Z,27.8383,-97.0503,5.92,30.8,1111122 
NERRS,ioos:station:NOAA.NERRS:marscwq:1,2017-04-08T15:00:00Z,27.8383,-97.0503,5.95,30.7,1111122 
NERRS,ioos:station:NOAA.NERRS:marscwq:1,2017-04-08T16:00:00Z,27.8383,-97.0503,5.98,30.7,1111122 
NERRS,ioos:station:NOAA.NERRS:marscwq:1,2017-04-08T17:00:00Z,27.8383,-97.0503,6.06,30.6,1111122 
NERRS,ioos:station:NOAA.NERRS:marscwq:1,2017-04-08T18:00:00Z,27.8383,-97.0503,6.06,30.6,1111122 
NERRS,ioos:station:NOAA.NERRS:marscwq:1,2017-04-08T19:00:00Z,27.8383,-97.0503,6.07,30.6,1111122 
NERRS,ioos:station:NOAA.NERRS:marscwq:1,2017-04-08T20:00:00Z,27.8383,-97.0503,6.04,31.5,1111122 
NERRS,ioos:station:NOAA.NERRS:marscwq:1,2017-04-08T21:00:00Z,27.8383,-97.0503,6.02,31.4,1111122 
NERRS,ioos:station:NOAA.NERRS:marscwq:1,2017-04-08T22:00:00Z,27.8383,-97.0503,6.0,31.4,1111122 
NERRS,ioos:station:NOAA.NERRS:marscwq:1,2017-04-08T23:00:00Z,27.8383,-97.0503,6.0,31.5,1111122 
NERRS,ioos:station:NOAA.NERRS:marscwq:1,2017-04-09T00:00:00Z,27.8383,-97.0503,5.96,31.4,1111122 
NERRS,ioos:station:NOAA.NERRS:marscwq:1,2017-04-09T01:00:00Z,27.8383,-97.0503,5.93,31.4,1111122 
NERRS,ioos:station:NOAA.NERRS:marscwq:1,2017-04-09T02:00:00Z,27.8383,-97.0503,5.91,31.5,1111122 
NERRS,ioos:station:NOAA.NERRS:marscwq:1,2017-04-09T03:00:00Z,27.8383,-97.0503,5.93,31.5,1111122 
NERRS,ioos:station:NOAA.NERRS:marscwq:1,2017-04-09T04:00:00Z,27.8383,-97.0503,5.99,31.4,1111122 
NERRS,ioos:station:NOAA.NERRS:marscwq:1,2017-04-09T05:00:00Z,27.8383,-97.0503,6.02,31.4,1111122 
NERRS,ioos:station:NOAA.NERRS:marscwq:1,2017-04-09T06:00:00Z,27.8383,-97.0503,6.06,31.4,1111122 
NERRS,ioos:station:NOAA.NERRS:marscwq:1,2017-04-09T07:00:00Z,27.8383,-97.0503,6.05,31.4,1111122 
NERRS,ioos:station:NOAA.NERRS:marscwq:1,2017-04-09T08:00:00Z,27.8383,-97.0503,6.06,31.7,1111122 
NERRS,ioos:station:NOAA.NERRS:marscwq:1,2017-04-09T09:00:00Z,27.8383,-97.0503,6.04,31.9,1111122 
NERRS,ioos:station:NOAA.NERRS:marscwq:1,2017-04-09T10:00:00Z,27.8383,-97.0503,6.0,31.8,1111122 
NERRS,ioos:station:NOAA.NERRS:marscwq:1,2017-04-09T11:00:00Z,27.8383,-97.0503,5.97,31.7,1111122 
NERRS,ioos:station:NOAA.NERRS:marscwq:1,2017-04-09T12:00:00Z,27.8383,-97.0503,5.95,31.6,1111122 
NERRS,ioos:station:NOAA.NERRS:marscwq:1,2017-04-09T13:00:00Z,27.8383,-97.0503,5.94,31.6,1111122 
NERRS,ioos:station:NOAA.NERRS:marscwq:1,2017-04-09T14:00:00Z,27.8383,-97.0503,5.94,31.7,1111122 
NERRS,ioos:station:NOAA.NERRS:marscwq:1,2017-04-09T16:00:00Z,27.8383,-97.0503,5.99,31.7,1111122 
NERRS,ioos:station:NOAA.NERRS:marscwq:1,2017-04-09T17:00:00Z,27.8383,-97.0503,5.99,31.5,1111122 
NERRS,ioos:station:NOAA.NERRS:marscwq:1,2017-04-09T18:00:00Z,27.8383,-97.0503,6.06,31.4,1111122 
NERRS,ioos:station:NOAA.NERRS:marscwq:1,2017-04-09T19:00:00Z,27.8383,-97.0503,6.08,31.4,1111122 
NERRS,ioos:station:NOAA.NERRS:marscwq:1,2017-04-09T20:00:00Z,27.8383,-97.0503,6.08,31.6,1111122 
NERRS,ioos:station:NOAA.NERRS:marscwq:1,2017-04-09T21:00:00Z,27.8383,-97.0503,6.03,32.1,1111122 
NERRS,ioos:station:NOAA.NERRS:marscwq:1,2017-04-09T22:00:00Z,27.8383,-97.0503,6.04,32.0,1111122 
NERRS,ioos:station:NOAA.NERRS:marscwq:1,2017-04-09T23:00:00Z,27.8383,-97.0503,6.0,32.0,1111122 
NERRS,ioos:station:NOAA.NERRS:marscwq:1,2017-04-10T00:00:00Z,27.8383,-97.0503,5.98,32.1,1111122 
NERRS,ioos:station:NOAA.NERRS:marscwq:1,2017-04-10T01:00:00Z,27.8383,-97.0503,5.98,32.1,1111122 
NERRS,ioos:station:NOAA.NERRS:marscwq:1,2017-04-10T02:00:00Z,27.8383,-97.0503,5.97,32.4,1111122 
NERRS,ioos:station:NOAA.NERRS:marscwq:1,2017-04-10T03:00:00Z,27.8383,-97.0503,5.98,32.2,1111122 
NERRS,ioos:station:NOAA.NERRS:marscwq:1,2017-04-10T04:00:00Z,27.8383,-97.0503,6.02,32.1,1111122 
NERRS,ioos:station:NOAA.NERRS:marscwq:1,2017-04-10T05:00:00Z,27.8383,-97.0503,6.04,32.2,1111122 
NERRS,ioos:station:NOAA.NERRS:marscwq:1,2017-04-10T06:00:00Z,27.8383,-97.0503,6.1,32.1,1111122 
NERRS,ioos:station:NOAA.NERRS:marscwq:1,2017-04-10T07:00:00Z,27.8383,-97.0503,6.16,32.1,1111122 
NERRS,ioos:station:NOAA.NERRS:marscwq:1,2017-04-10T08:00:00Z,27.8383,-97.0503,6.16,32.5,1111122 
NERRS,ioos:station:NOAA.NERRS:marscwq:1,2017-04-10T09:00:00Z,27.8383,-97.0503,6.15,32.5,1111122 
NERRS,ioos:station:NOAA.NERRS:marscwq:1,2017-04-10T10:00:00Z,27.8383,-97.0503,6.13,32.6,1111122 
NERRS,ioos:station:NOAA.NERRS:marscwq:1,2017-04-10T11:00:00Z,27.8383,-97.0503,6.11,32.6,1111122 
NERRS,ioos:station:NOAA.NERRS:marscwq:1,2017-04-10T12:00:00Z,27.8383,-97.0503,6.11,32.5,1111122 
NERRS,ioos:station:NOAA.NERRS:marscwq:1,2017-04-10T13:00:00Z,27.8383,-97.0503,6.07,32.4,1111122 
NERRS,ioos:station:NOAA.NERRS:marscwq:1,2017-04-10T14:00:00Z,27.8383,-97.0503,6.1,32.5,1111122 
NERRS,ioos:station:NOAA.NERRS:marscwq:1,2017-04-10T15:00:00Z,27.8383,-97.0503,6.05,32.5,1111122 
NERRS,ioos:station:NOAA.NERRS:marscwq:1,2017-04-10T16:00:00Z,27.8383,-97.0503,6.03,32.4,1111122 
NERRS,ioos:station:NOAA.NERRS:marscwq:1,2017-04-10T17:00:00Z,27.8383,-97.0503,6.06,32.4,1111122 
NERRS,ioos:station:NOAA.NERRS:marscwq:1,2017-04-10T18:00:00Z,27.8383,-97.0503,6.11,32.4,1111122 
NERRS,ioos:station:NOAA.NERRS:marscwq:1,2017-04-10T19:00:00Z,27.8383,-97.0503,6.1,32.4,1111122 
NERRS,ioos:station:NOAA.NERRS:marscwq:1,2017-04-10T20:00:00Z,27.8383,-97.0503,6.12,32.4,1111122 
NERRS,ioos:station:NOAA.NERRS:marscwq:1,2017-04-10T21:00:00Z,27.8383,-97.0503,6.13,32.4,1111122 
NERRS,ioos:station:NOAA.NERRS:marscwq:1,2017-04-10T22:00:00Z,27.8383,-97.0503,6.07,32.4,1111122 
NERRS,ioos:station:NOAA.NERRS:marscwq:1,2017-04-10T23:00:00Z,27.8383,-97.0503,6.03,32.4,1111122 
NERRS,ioos:station:NOAA.NERRS:marscwq:1,2017-04-11T00:00:00Z,27.8383,-97.0503,6.02,32.4,1111122 
NERRS,ioos:station:NOAA.NERRS:marscwq:1,2017-04-11T01:00:00Z,27.8383,-97.0503,6.01,32.4,1111122 
NERRS,ioos:station:NOAA.NERRS:marscwq:1,2017-04-11T02:00:00Z,27.8383,-97.0503,5.97,32.4,1111122 
NERRS,ioos:station:NOAA.NERRS:marscwq:1,2017-04-11T03:00:00Z,27.8383,-97.0503,5.98,32.3,1111122 
NERRS,ioos:station:NOAA.NERRS:marscwq:1,2017-04-11T04:00:00Z,27.8383,-97.0503,5.99,32.2,1111122 
NERRS,ioos:station:NOAA.NERRS:marscwq:1,2017-04-11T05:00:00Z,27.8383,-97.0503,6.01,32.2,1111122 
NERRS,ioos:station:NOAA.NERRS:marscwq:1,2017-04-11T06:00:00Z,27.8383,-97.0503,6.09,32.1,1111122 
NERRS,ioos:station:NOAA.NERRS:marscwq:1,2017-04-11T07:00:00Z,27.8383,-97.0503,6.17,31.9,1111122 
NERRS,ioos:station:NOAA.NERRS:marscwq:1,2017-04-11T08:00:00Z,27.8383,-97.0503,6.19,32.0,1111122 
NERRS,ioos:station:NOAA.NERRS:marscwq:1,2017-04-11T09:00:00Z,27.8383,-97.0503,6.21,32.4,1111122 
NERRS,ioos:station:NOAA.NERRS:marscwq:1,2017-04-11T10:00:00Z,27.8383,-97.0503,6.18,32.6,1111122 
NERRS,ioos:station:NOAA.NERRS:marscwq:1,2017-04-11T11:00:00Z,27.8383,-97.0503,6.22,32.6,1111122 
NERRS,ioos:station:NOAA.NERRS:marscwq:1,2017-04-11T12:00:00Z,27.8383,-97.0503,6.18,32.7,1111122 
NERRS,ioos:station:NOAA.NERRS:marscwq:1,2017-04-11T13:00:00Z,27.8383,-97.0503,6.2,32.6,1111122 
NERRS,ioos:station:NOAA.NERRS:marscwq:1,2017-04-11T14:00:00Z,27.8383,-97.0503,6.21,32.5,1111122 
NERRS,ioos:station:NOAA.NERRS:marscwq:1,2017-04-11T15:00:00Z,27.8383,-97.0503,6.22,32.5,1111122 
NERRS,ioos:station:NOAA.NERRS:marscwq:1,2017-04-11T16:00:00Z,27.8383,-97.0503,6.2,32.4,1111122 
NERRS,ioos:station:NOAA.NERRS:marscwq:1,2017-04-11T17:00:00Z,27.8383,-97.0503,6.18,32.5,1111122 
NERRS,ioos:station:NOAA.NERRS:marscwq:1,2017-04-11T18:00:00Z,27.8383,-97.0503,6.22,32.4,1111122 
NERRS,ioos:station:NOAA.NERRS:marscwq:1,2017-04-11T19:00:00Z,27.8383,-97.0503,6.23,32.4,1111122 
NERRS,ioos:station:NOAA.NERRS:marscwq:1,2017-04-11T20:00:00Z,27.8383,-97.0503,6.22,32.3,1111122 
NERRS,ioos:station:NOAA.NERRS:marscwq:1,2017-04-11T21:00:00Z,27.8383,-97.0503,6.21,32.4,1111122 
NERRS,ioos:station:NOAA.NERRS:marscwq:1,2017-04-11T22:00:00Z,27.8383,-97.0503,6.2,32.3,1111122 
NERRS,ioos:station:NOAA.NERRS:marscwq:1,2017-04-11T23:00:00Z,27.8383,-97.0503,6.23,32.1,1111122 
NERRS,ioos:station:NOAA.NERRS:marscwq:1,2017-04-12T00:00:00Z,27.8383,-97.0503,6.19,32.0,1111122 
NERRS,ioos:station:NOAA.NERRS:marscwq:1,2017-04-12T01:00:00Z,27.8383,-97.0503,6.0,32.1,1111122 
NERRS,ioos:station:NOAA.NERRS:marscwq:1,2017-04-12T02:00:00Z,27.8383,-97.0503,6.14,32.5,1111122 
NERRS,ioos:station:NOAA.NERRS:marscwq:1,2017-04-12T03:00:00Z,27.8383,-97.0503,6.12,32.5,1111122 
NERRS,ioos:station:NOAA.NERRS:marscwq:1,2017-04-12T04:00:00Z,27.8383,-97.0503,6.22,32.5,1111122 
NERRS,ioos:station:NOAA.NERRS:marscwq:1,2017-04-12T05:00:00Z,27.8383,-97.0503,6.23,32.5,1111122 
NERRS,ioos:station:NOAA.NERRS:marscwq:1,2017-04-12T06:00:00Z,27.8383,-97.0503,6.14,32.5,1111122 
NERRS,ioos:station:NOAA.NERRS:marscwq:1,2017-04-12T07:00:00Z,27.8383,-97.0503,6.18,32.5,1111122 
NERRS,ioos:station:NOAA.NERRS:marscwq:1,2017-04-12T08:00:00Z,27.8383,-97.0503,6.3,32.5,1111122 
NERRS,ioos:station:NOAA.NERRS:marscwq:1,2017-04-12T09:00:00Z,27.8383,-97.0503,6.4,32.5,1111122 
NERRS,ioos:station:NOAA.NERRS:marscwq:1,2017-04-12T10:00:00Z,27.8383,-97.0503,6.39,31.6,1111122 
NERRS,ioos:station:NOAA.NERRS:marscwq:1,2017-04-12T11:00:00Z,27.8383,-97.0503,6.29,31.2,1111122 
NERRS,ioos:station:NOAA.NERRS:marscwq:1,2017-04-12T12:00:00Z,27.8383,-97.0503,6.32,31.2,1111122 
NERRS,ioos:station:NOAA.NERRS:marscwq:1,2017-04-12T14:00:00Z,27.8383,-97.0503,6.35,31.0,1111122 
NERRS,ioos:station:NOAA.NERRS:marscwq:1,2017-04-12T15:00:00Z,27.8383,-97.0503,6.34,31.0,1111122 
NERRS,ioos:station:NOAA.NERRS:marscwq:1,2017-04-12T16:00:00Z,27.8383,-97.0503,6.27,31.0,1111122 
NERRS,ioos:station:NOAA.NERRS:marscwq:1,2017-04-12T17:00:00Z,27.8383,-97.0503,6.27,31.1,1111122 
NERRS,ioos:station:NOAA.NERRS:marscwq:1,2017-04-12T18:00:00Z,27.8383,-97.0503,6.27,31.0,1111122 
NERRS,ioos:station:NOAA.NERRS:marscwq:1,2017-04-12T19:00:00Z,27.8383,-97.0503,6.36,31.1,1111122 
NERRS,ioos:station:NOAA.NERRS:marscwq:1,2017-04-12T20:00:00Z,27.8383,-97.0503,6.34,31.1,1111122 
NERRS,ioos:station:NOAA.NERRS:marscwq:1,2017-04-12T21:00:00Z,27.8383,-97.0503,6.27,31.1,1111122 
NERRS,ioos:station:NOAA.NERRS:marscwq:1,2017-04-12T22:00:00Z,27.8383,-97.0503,6.23,31.1,1111122 
NERRS,ioos:station:NOAA.NERRS:marscwq:1,2017-04-12T23:00:00Z,27.8383,-97.0503,6.17,31.1,1111122 
NERRS,ioos:station:NOAA.NERRS:marscwq:1,2017-04-13T00:00:00Z,27.8383,-97.0503,6.15,31.3,1111122 
NERRS,ioos:station:NOAA.NERRS:marscwq:1,2017-04-13T01:00:00Z,27.8383,-97.0503,6.09,31.4,1111122 
NERRS,ioos:station:NOAA.NERRS:marscwq:1,2017-04-13T02:00:00Z,27.8383,-97.0503,6.06,31.4,1111122 
NERRS,ioos:station:NOAA.NERRS:marscwq:1,2017-04-13T03:00:00Z,27.8383,-97.0503,5.99,31.4,1111122 
NERRS,ioos:station:NOAA.NERRS:marscwq:1,2017-04-13T04:00:00Z,27.8383,-97.0503,6.03,31.1,1111122 
NERRS,ioos:station:NOAA.NERRS:marscwq:1,2017-04-13T05:00:00Z,27.8383,-97.0503,6.02,30.7,1111122 
NERRS,ioos:station:NOAA.NERRS:marscwq:1,2017-04-13T06:00:00Z,27.8383,-97.0503,6.07,30.7,1111122 
NERRS,ioos:station:NOAA.NERRS:marscwq:1,2017-04-13T07:00:00Z,27.8383,-97.0503,6.16,31.2,1111122 
NERRS,ioos:station:NOAA.NERRS:marscwq:1,2017-04-13T08:00:00Z,27.8383,-97.0503,6.17,31.2,1111122 